Tracking 29892 objects as of 21-Nov-2024
HD Live streaming from Space Station
objects crossing your sky now

STARLINK-5398

Track STARLINK-5398 now!
10-day predictions
STARLINK-5398 is classified as:


NORAD ID: 54866
Int'l Code: 2022-177AY
Perigee: 565.4 km
Apogee: 567.3 km
Inclination: 43.0 °
Period: 95.8 minutes
Semi major axis: 6937 km
RCS: Unknown
Launch date: December 28, 2022
Source: United States (US)
Launch site: AIR FORCE EASTERN TEST RANGE (AFETR)
Your satellite tracking list
Your tracking list is empty




NASA's NSSDC Master Catalog

Two Line Element Set (TLE):
1 54866U 22177AY  24325.93319562  .00006128  00000-0  46873-3 0  9990
2 54866  43.0023 174.2709 0001346 251.4717 108.5979 15.02499620104860
Source of the keplerian elements: AFSPC